SCP
0 0 0 0 0 0 0 0 0 0 0 0 0 0 0 0 0 0 0 0 0 0 0 0 0 0 0 0 0 0 0 0 0 0 0 0 0 0 0 0 0 0 0
0 0 0 0 0 0 0 0 0 0 0 0 0 0 0 0 0 0 0 0 0 0 0 0 0 0 0 0 0 0 0 0 0 0 0 0 0 0 0 0 0 0 0
0 0 0 0 0 0 0 0 0 0 0 0 0 0 0 0 0 0 0 0 0 0 0 0 0 0 0 0 0 0 0 0 0 0 0 0 0 0 0 0 0 0 0
0 0 0 0 0 0 0 0 0 0 0 0 0 0 0 0 0 0 0 0 0 0 0 0 0 0 0 0 0 0 0 0 0 0 0 0 0 0 0 0 0 0 0
0 0 0 0 0 0 0 0 0 0 0 0 0 0 0 0 0 0 0 0 0 0 0 0 0 0 0 0 0 0 0 0 0 0 0 0 0 0 0 0 0 0 0
0 0 0 0 0 0 0 0 0 0 0 0 0 0 0 0 0 0 0 0 0 0 0 0 0 0 0 0 0 0 0 0 0 0 0 0 0 0 0 0 0 0 0
0 0 0 0 0 0 0 0 0 0 0 0 0 0 0 0 0 0 0 0 0 0 0 0 0 0 0 0 0 0 0 0 0 0 0 0 0 0 0 0 0 0 0
-0 0 0 0 0 0 0 0 0 0 0 0 0 0 0 0 0 0 0 0 0 0 0 0 0 0 0 0 0 0 0 0 0 0 0 0 0 0 0 0 0 0 0
-0 -0 0 0 0 0 0 0 0 0 0 0 0 0 0 0 0 0 0 0 0 0 0 0 0 0 0 0 0 0 0 0 0 0 0 0 0 0 0 0 0 0 0
-0 -0 0 0 0 0 0 0 0 0 0 0 0 0 0 0 0 0 0 0 0 0 0 0 0 0 0 0 0 0 0 0 0 0 0 0 0 0 0 0 0 0 0
-0 -0 0 0 0 0 0 0 0 0 0 0 0 0 0 0 0 0 0 0 0 0 0 0 0 0 0 0 0 0 0 0 0 0 0 0 0 0 0 0 0 0 0
0 0 0 0 0 0 0 0 0 0 0 0 0 0 0 0 0 0 0 0 0 0 0 0 0 0 0 0 0 0 0 0 0 0 0 0 0 0 0 0 0 0 0
0 0 0 0 0 0 0 0 0 0 0 0 0 0 0 0 0 0 0 0 0 0 0 0 0 0 0 0 0 0 0 0 0 0 0 0 0 0 0 0 0 0 0
0 0 0 0 0 0 0 0 0 0 0 0 0 0 0 0 0 0 0 0 0 0 0 0 0 0 0 0 0 0 0 0 0 0 0 0 0 0 0 0 0 0 0
0 0 0 0 0 -0 0 0 0 0 0 0 0 0 0 0 0 0 0 0 0 0 0 0 0 0 0 0 0 0 0 0 0 0 0 0 0 0 0 0 0 0 0
0 0 0 0 -0 -0 -0 0 0 0 0 0 0 0 0 0 0 0 0 0 0 0 0 0 0 0 0 0 0 0 0 0 0 0 0 0 0 0 0 0 0 0 0
0 0 0 -0 -0 -0 -0 0 0 0 0 0 0 0 0 0 0 0 0 0 0 0 0 0 0 0 0 0 0 0 0 0 0 0 0 0 0 0 0 0 0 0 0
0 0 0 -0 -0 -0 -0 0 0 0 0 0 0 0 0 0 0 0 0 0 0 0 0 0 0 0 0 0 0 0 0 0 0 0 0 0 0 0 0 0 0 0 0
0 0 0 0 0 0 0 -0 -0 -0 0 0 0 0 0 0 0 0 0 0 0 0 0 0 0 0 0 0 0 0 0 0 0 0 0 0 0 0 0 0 0 0 0
0 0 0 0 0 0 0 -0 -0 -0 0 0 0 0 0 0 0 0 0 0 0 0 0 0 0 0 0 0 0 0 0 0 0 0 0 0 0 0 0 0 0 0 0
0 0 0 0 0 0 0 -0 -0 -0 -0 0 0 0 0 0 0 0 0 0 0 0 0 0 0 0 0 0 0 0 0 0 0 0 0 0 0 0 0 0 0 0 0
0 0 0 0 0 0 0 0 0 -0 -0 -0 0 0 0 0 0 0 0 0 0 0 0 0 0 0 0 0 0 0 0 0 0 0 0 0 0 0 0 0 0 0 0
0 0 0 0 0 0 0 0 0 -0 -0 -0 0 0 0 0 0 0 0 0 0 0 0 0 0 0 0 0 0 0 0 0 0 0 0 0 0 0 0 0 0 0 0
0 0 0 0 0 0 0 0 0 -0 -0 -0 0 0 0 0 0 0 0 0 0 0 0 0 0 0 0 0 0 0 0 0 0 0 0 0 0 0 0 0 0 0 0
0 0 0 0 0 0 0 0 0 0 0 0 0 0 0 0 0 0 0 0 0 0 0 0 0 0 0 0 0 0 0 0 0 0 0 0 0 0 0 0 0 0 0
0 0 0 0 0 0 0 0 0 0 0 0 0 0 0 0 0 0 0 0 0 0 0 0 0 0 0 0 0 0 0 0 0 0 0 0 0 0 0 0 0 0 0
Wind_Speed
4 4 5 5 5 5 5 5 5 4 4 2 2 1 1 1 1 0 1 1 1 1 1 1 1 1 1 2 3 2 2 2 2 2 1 1 1 1 1 2 2 3 4
4 4 4 5 5 5 5 5 4 4 4 3 2 1 1 0 1 0 0 1 1 1 1 1 1 1 1 1 2 2 2 1 2 3 3 2 2 2 0 1 2 3 2
5 5 5 5 5 5 5 4 5 4 4 4 2 2 2 1 2 1 1 1 1 1 1 1 1 1 1 1 2 2 2 2 1 2 3 3 2 2 1 0 1 2 2
4 4 5 5 5 5 4 5 5 4 4 4 4 4 3 2 2 1 1 1 2 2 2 2 2 1 1 1 1 1 2 2 2 1 1 2 3 3 3 2 1 2 2
4 5 5 5 4 4 4 4 4 4 4 4 4 4 3 2 1 2 2 2 2 2 2 2 2 2 1 1 2 2 2 2 2 2 2 2 2 4 4 4 3 3 2
4 4 4 4 4 4 4 4 5 4 4 4 4 5 4 4 3 3 3 2 2 2 2 3 3 3 2 2 2 3 3 3 3 3 3 3 3 3 4 5 5 5 3
5 5 6 6 5 5 5 4 5 4 4 4 4 4 4 5 5 4 3 3 2 2 3 3 3 3 3 3 3 3 4 4 4 4 3 3 4 4 4 5 5 6 4
5 5 5 5 5 5 4 4 4 3 3 3 3 3 4 3 3 4 4 4 3 3 3 3 4 4 4 3 3 3 4 4 4 5 5 4 4 4 4 4 5 6 5
5 5 5 5 4 4 3 3 3 3 2 2 2 2 3 3 3 3 4 4 3 3 4 4 4 4 4 4 4 4 4 4 4 5 5 5 4 4 4 4 5 5 6
5 5 5 5 4 3 3 2 2 1 1 1 1 1 2 2 3 3 4 4 4 3 4 4 4 4 4 4 5 4 5 5 5 4 5 5 4 4 4 4 5 5 6
6 5 5 4 4 3 3 2 2 1 0 0 1 2 2 2 3 3 3 4 3 3 4 4 4 4 5 5 5 5 5 6 6 6 6 6 6 5 4 4 5 5 6
5 5 5 5 4 3 2 2 1 0 0 1 2 2 2 2 3 3 3 3 3 3 4 4 5 5 5 5 6 6 6 7 7 7 7 7 6 7 6 5 6 6 7
5 5 5 4 4 3 2 1 1 1 1 1 2 2 2 2 3 3 3 3 3 4 4 5 5 5 5 5 6 7 7 7 8 8 8 8 8 8 6 7 7 6 6
5 5 5 4 3 3 2 2 1 1 1 1 2 2 2 2 3 3 3 3 3 4 5 5 5 5 5 6 6 7 7 8 8 8 8 9 8 9 8 7 8 7 7
6 5 5 4 3 3 3 2 2 2 2 2 2 3 3 3 3 3 3 3 4 4 5 5 5 5 5 5 6 7 7 8 9 9 9 9 10 10 9 7 7 7 7
7 6 5 4 4 4 3 3 3 2 2 3 3 3 3 3 3 3 3 4 4 4 5 5 6 6 5 7 10 9 8 9 9 9 9 9 10 12 14 14 13 11 9
6 6 5 5 4 4 3 3 3 2 3 3 3 3 3 3 3 3 4 4 5 5 5 6 6 7 7 9 11 11 9 9 9 10 9 8 8 10 10 12 14 14 15
5 5 4 4 4 3 3 3 3 3 3 4 4 3 3 4 4 4 5 5 5 5 6 6 7 7 8 10 12 12 10 10 10 10 10 10 10 9 10 9 10 10 11
4 3 3 3 3 3 3 3 3 3 4 4 4 4 4 4 4 5 6 5 5 6 6 6 7 8 9 10 12 12 8 8 10 10 10 11 11 12 13 11 10 10 9
2 2 2 2 3 2 2 3 3 4 4 4 4 4 4 5 6 6 6 5 5 6 6 7 8 9 10 11 12 12 7 8 8 8 9 12 13 13 13 11 10 11 10
2 2 2 2 2 2 3 4 4 5 4 4 4 5 5 5 6 6 6 6 6 6 7 8 8 9 10 11 12 12 8 8 8 8 7 7 11 14 14 13 10 11 10
2 2 3 3 3 3 4 5 5 5 4 4 5 5 6 5 5 6 6 6 6 7 8 8 9 7 8 9 10 12 12 12 9 9 7 7 11 13 14 12 11 13 11
3 3 4 4 3 4 5 6 5 4 4 5 5 5 6 5 5 6 7 6 6 6 6 7 8 8 6 7 11 13 14 14 10 8 11 12 13 13 11 12 13 11 7
4 4 4 5 4 4 5 6 5 4 5 6 6 5 6 6 6 5 5 6 6 6 7 7 8 8 7 7 6 6 7 10 9 8 10 12 13 11 10 10 8 7 6
4 4 5 5 6 5 5 6 5 5 6 6 6 6 6 6 6 6 6 7 8 8 8 8 8 8 9 9 12 10 8 7 7 8 7 6 6 6 6 6 6 6 6
5 5 6 6 6 5 6 6 5 6 6 6 6 5 5 5 6 6 7 9 11 13 15 15 14 11 14 17 17 17 17 16 14 10 7 7 7 7 6 6 6 5 6
Wind_Direction
183 171 169 171 168 162 159 157 155 156 162 166 178 175 166 164 140 98 18 356 354 359 359 359 16 13 17 13 5 358 360 8 346 296 275 207 179 23 33 21 25 33 28
168 167 167 169 176 173 171 166 166 168 176 173 164 142 107 32 334 191 304 297 293 299 307 320 332 356 352 1 4 353 329 350 359 322 298 279 205 165 55 13 12 10 15
191 176 174 180 184 183 182 176 176 180 181 172 160 157 168 190 226 228 238 254 266 262 262 269 287 312 324 335 341 335 329 325 353 351 316 304 310 322 211 253 323 343 344
194 182 178 180 184 187 183 182 179 183 184 185 193 197 208 214 240 260 264 266 264 265 253 255 259 271 276 290 299 310 300 297 300 288 291 300 314 294 293 234 243 305 308
186 178 179 178 176 172 175 179 176 180 186 192 202 208 220 232 245 255 258 264 253 252 249 253 255 255 255 265 280 280 273 271 278 282 283 265 258 258 271 282 286 282 276
166 159 156 158 154 157 166 170 173 177 183 192 205 216 222 230 236 249 257 257 251 248 245 247 247 248 247 248 255 259 256 255 259 264 266 270 267 267 266 277 289 289 285
158 153 152 153 152 161 164 165 171 175 182 193 208 220 228 235 239 249 257 259 254 248 249 245 245 245 241 241 245 248 252 250 252 255 259 260 263 273 271 273 284 286 283
155 151 150 149 149 156 160 162 169 174 178 196 215 225 225 232 241 247 254 259 258 261 264 253 250 249 245 240 237 246 247 249 248 252 255 257 257 255 257 264 278 284 273
157 152 147 143 143 145 146 154 163 166 171 190 212 218 218 227 237 243 249 256 255 258 257 255 252 249 244 244 242 244 245 246 247 250 250 253 257 254 255 256 258 270 282
158 155 150 144 139 134 131 130 135 149 163 191 219 226 225 234 242 246 250 255 256 252 255 257 254 251 246 242 239 244 245 246 247 248 251 252 254 251 248 248 250 252 265
168 164 156 149 141 135 132 127 124 129 146 232 254 226 232 236 241 244 253 257 255 254 255 259 257 253 249 244 242 244 245 246 250 246 247 251 252 251 247 245 246 248 250
177 172 164 157 152 149 149 151 153 188 282 290 280 259 243 239 245 253 263 264 265 267 262 260 257 257 255 252 249 251 249 249 252 251 249 250 247 247 249 246 246 248 248
179 175 172 173 173 175 179 188 204 255 297 286 275 269 255 249 256 267 272 273 274 275 268 258 258 261 261 258 254 254 255 253 253 253 252 252 249 248 246 246 249 250 251
188 186 187 189 189 196 206 218 236 259 274 269 268 272 275 275 278 282 277 277 275 274 273 267 264 263 260 257 256 256 256 256 256 254 253 253 250 251 251 249 249 250 251
199 200 206 206 206 211 222 233 244 252 257 261 267 277 285 286 282 281 280 280 278 276 275 273 270 266 261 257 260 260 260 261 260 257 253 251 249 250 252 252 250 248 248
210 211 216 221 222 226 233 238 247 255 253 257 266 276 277 278 278 282 284 281 279 278 274 271 272 271 264 261 263 266 265 262 261 262 260 255 248 247 247 249 250 250 251
218 218 221 225 230 234 236 242 251 252 252 260 269 272 274 279 285 289 284 281 281 281 278 274 273 272 270 268 270 268 269 265 263 262 262 259 252 247 248 248 248 248 249
222 225 229 233 234 231 234 240 243 243 250 257 263 268 273 278 284 283 280 280 278 276 278 277 276 276 273 272 274 274 270 266 263 261 260 260 258 248 247 251 251 250 248
234 239 235 227 220 220 222 226 236 243 251 258 265 270 273 276 277 277 279 281 279 278 277 277 276 276 277 273 274 275 272 266 266 262 259 257 259 254 248 249 252 254 253
234 236 223 215 217 213 213 228 241 248 255 264 270 272 268 267 270 274 279 280 278 278 280 276 274 273 275 275 275 274 268 268 270 267 261 256 256 258 253 248 250 253 255
216 210 210 219 226 218 219 236 246 253 263 268 269 270 269 268 271 274 273 274 275 275 275 276 275 273 273 276 274 271 267 267 272 271 268 262 259 260 257 252 251 254 259
220 217 220 231 233 224 227 242 251 262 267 266 267 269 271 271 270 271 274 273 272 274 277 279 281 277 274 271 273 272 269 271 271 271 270 266 264 264 262 257 252 255 256
232 226 230 241 241 230 234 249 260 265 263 264 266 270 273 272 269 269 272 274 271 270 275 278 281 283 282 277 273 275 274 273 270 270 270 270 269 268 262 253 253 253 246
231 229 234 244 250 244 246 255 264 261 258 262 269 272 272 273 272 267 265 266 266 269 273 275 279 283 283 280 277 274 277 274 270 270 270 268 264 258 255 256 251 242 240
235 233 239 248 257 255 256 259 257 254 256 262 266 268 267 269 273 270 265 265 266 267 274 276 277 280 281 280 281 284 280 277 272 277 269 259 255 252 248 246 244 239 237
237 237 244 250 259 260 262 261 254 249 253 259 263 264 266 269 271 276 279 260 257 271 270 270 272 274 273 283 284 283 281 280 275 272 261 257 252 250 249 247 245 240 237